Temp
64 64 65 65 65 65 65 65 65 64 65 65 66 66 66 66 65 64 60 68 71 70 70 69 68 68 68 65 68 65 51 48 52 53 56 63 61 61 62 62 59 60 60 63 67
63 64 64 64 64 64 64 64 64 64 64 65 65 65 66 65 62 60 70 71 72 70 69 66 61 61 60 62 63 61 49 54 63 63 59 62 62 63 60 57 56 57 60 64 65
63 63 63 63 64 64 64 64 64 64 64 64 64 65 64 63 57 59 70 71 71 70 72 72 66 61 55 61 61 61 56 63 62 62 64 64 61 62 59 54 59 57 58 61 61
62 63 62 62 63 63 63 63 63 63 64 63 64 64 63 60 48 63 70 70 71 70 70 66 64 57 55 54 60 54 62 65 65 63 62 62 65 61 59 61 66 61 62 62 62
61 61 61 62 62 63 63 63 63 63 63 63 64 64 60 54 55 68 68 69 68 67 66 65 60 59 55 57 60 58 61 65 64 63 60 63 59 62 60 60 61 61 61 61 62
60 60 60 61 61 62 62 63 63 63 63 63 63 63 56 49 66 66 65 65 66 65 63 65 62 63 60 57 58 60 61 61 62 63 62 60 55 58 61 59 59 60 59 60 61
60 60 60 60 61 61 62 62 62 62 62 63 63 59 52 55 63 64 65 63 65 66 62 65 67 64 62 56 63 62 57 56 57 60 60 59 53 56 58 59 58 58 59 59 60
60 59 59 59 60 61 61 61 61 62 61 62 61 54 46 63 60 60 63 61 65 66 66 67 65 65 61 62 58 53 56 49 58 57 56 57 47 58 61 59 56 56 57 58 59
59 59 59 59 59 59 60 60 60 60 61 61 54 51 46 61 56 60 61 60 63 65 63 67 64 58 59 53 49 51 44 48 53 57 54 54 48 59 61 59 58 56 56 58 59
59 58 59 59 59 59 59 59 59 58 57 58 55 45 50 50 57 60 61 62 60 58 56 55 55 53 50 50 41 41 46 49 51 53 52 48 50 54 57 58 60 57 57 57 59
58 58 59 59 59 59 57 51 46 43 47 46 47 46 49 57 61 55 61 60 60 54 45 51 47 45 49 53 53 50 47 50 52 54 50 49 49 54 57 54 55 57 57 59 59
58 58 59 58 59 59 53 46 48 48 38 48 48 49 53 55 49 51 59 53 51 45 49 45 43 52 55 52 54 49 47 46 49 52 51 47 48 52 54 55 56 57 57 58 59
57 58 58 58 58 54 49 48 53 52 38 42 47 47 48 52 47 47 52 53 50 45 46 44 49 55 52 51 49 46 48 49 47 47 47 44 44 47 53 54 57 59 60 60 61
57 57 57 58 51 52 47 51 53 52 29 34 39 44 49 49 43 54 52 51 50 45 47 48 54 51 50 48 51 46 51 53 48 48 38 46 34 42 48 52 54 59 54 57 58
57 57 57 57 47 46 50 53 51 46 6 37 39 52 50 45 46 46 54 49 45 49 46 45 48 47 45 48 53 47 52 49 47 45 44 39 36 40 44 47 51 55 58 60 60
56 56 56 51 50 51 53 52 47 23 14 28 39 39 39 43 44 47 47 50 54 50 49 47 55 51 51 54 54 53 47 46 45 43 36 39 39 36 42 49 52 54 55 57 56
56 56 54 52 44 52 53 46 28 19 31 25 35 38 38 37 39 42 41 40 41 37 39 46 46 51 53 46 49 49 46 32 31 31 31 37 36 45 47 50 52 54 56 57 55
56 55 53 49 50 52 48 34 15 22 24 36 37 38 35 39 38 39 39 34 45 45 40 38 34 46 54 51 46 46 47 35 29 28 30 35 33 43 51 56 55 56 56 53 54
54 47 46 48 50 50 37 25 22 23 34 34 36 31 34 38 40 39 37 36 39 46 40 40 40 50 52 53 50 44 40 46 32 23 26 32 38 47 48 50 51 53 51 52 53
45 43 42 47 49 44 33 28 25 37 38 38 29 33 25 36 35 36 36 43 40 48 52 44 37 46 49 51 51 47 50 38 35 23 22 29 30 39 44 48 51 50 51 52 53
42 35 41 47 47 35 27 24 31 39 41 35 30 30 34 35 38 37 38 43 47 47 50 45 47 39 45 43 43 42 42 42 40 34 31 24 31 43 51 54 51 50 52 53 53
36 29 41 45 30 30 25 27 39 36 40 37 37 37 34 35 37 37 37 43 53 51 42 47 48 34 40 41 49 48 45 41 40 31 32 33 35 49 53 55 52 50 52 51 51
32 32 41 41 26 21 24 32 35 35 36 35 34 37 40 37 33 40 41 50 50 50 45 43 40 33 32 35 43 44 45 49 42 36 31 30 35 47 47 48 50 50 49 50 51
32 28 32 34 23 20 18 25 30 37 37 40 39 40 37 34 36 35 39 44 49 51 49 47 39 40 34 38 43 40 42 47 45 33 36 41 39 43 44 47 47 49 50 51 51
33 26 29 26 27 28 24 27 29 29 37 38 35 38 36 32 37 32 42 45 46 51 48 47 34 37 40 43 42 42 43 44 43 46 40 44 41 45 47 48 50 53 50 49 51
33 31 32 18 30 29 30 26 28 31 35 34 33 38 39 34 38 35 42 45 43 49 44 44 33 37 29 42 43 38 44 44 46 46 44 42 43 52 50 48 47 50 51 51 53
38 35 32 30 28 27 28 29 31 34 36 39 39 37 38 40 43 51 51 50 49 45 44 44 34 36 27 36 36 31 40 43 45 49 49 43 49 49 49 50 51 53 52 54 53
MSLP
1013.85 1014.14 1014.52 1014.85 1014.91 1015.33 1015.50 1015.92 1016.04 1016.28 1016.47 1016.53 1016.79 1017.01 1017.10 1017.20 1017.63 1017.95 1017.64 1017.37 1017.27 1017.24 1017.21 1018.11 1018.54 1018.97 1018.88 1018.64 1018.10 1017.74 1018.45 1018.33 1017.69 1017.41 1016.88 1016.81 1017.14 1017.46 1017.64 1018.44 1019.22 1019.64 1019.83 1019.77 1020.52
1013.18 1013.54 1013.86 1014.25 1014.46 1014.71 1015.05 1015.44 1015.73 1015.91 1016.17 1016.25 1016.39 1016.68 1016.87 1017.11 1017.68 1017.07 1016.94 1017.01 1017.16 1017.42 1017.56 1018.06 1018.84 1019.38 1019.60 1018.96 1018.32 1018.04 1018.31 1017.67 1016.86 1016.42 1016.51 1016.57 1016.87 1017.28 1017.88 1018.80 1019.56 1019.92 1019.93 1019.93 1020.52
1012.40 1012.89 1013.28 1013.64 1013.92 1014.29 1014.63 1014.99 1015.33 1015.59 1015.85 1015.96 1016.11 1016.40 1016.70 1017.07 1017.50 1015.98 1016.56 1016.61 1016.96 1017.28 1017.46 1017.67 1018.62 1019.61 1020.26 1019.13 1018.51 1017.92 1017.64 1017.00 1016.56 1016.13 1015.99 1016.22 1016.77 1017.08 1017.66 1018.77 1018.88 1019.52 1020.05 1020.36 1020.69
1011.48 1011.97 1012.51 1013.06 1013.47 1013.82 1014.16 1014.51 1014.99 1015.30 1015.64 1015.86 1015.96 1016.16 1016.62 1016.99 1016.44 1014.87 1015.16 1016.03 1016.72 1017.18 1017.61 1017.76 1018.46 1019.16 1019.12 1018.92 1018.43 1018.10 1017.14 1016.77 1016.33 1016.14 1016.21 1016.34 1016.51 1017.24 1017.64 1017.65 1017.72 1018.73 1019.35 1020.12 1020.72
1010.65 1011.24 1011.88 1012.46 1012.82 1013.33 1013.75 1014.03 1014.50 1014.90 1015.40 1015.66 1015.89 1016.09 1016.74 1016.39 1015.15 1014.63 1014.68 1015.18 1016.42 1017.08 1017.33 1017.29 1017.88 1018.36 1018.28 1018.48 1018.16 1017.99 1017.35 1016.78 1016.36 1016.30 1016.27 1016.32 1016.71 1017.18 1017.60 1017.57 1018.06 1019.04 1019.97 1020.20 1020.41
1009.66 1010.52 1011.23 1011.84 1012.35 1012.91 1013.33 1013.60 1014.13 1014.54 1015.09 1015.48 1015.88 1016.04 1016.52 1015.48 1014.73 1014.59 1014.69 1015.62 1015.90 1016.62 1016.99 1017.08 1017.26 1017.56 1017.69 1017.79 1017.85 1017.62 1017.61 1017.28 1016.90 1016.74 1016.60 1016.92 1017.27 1017.43 1017.71 1018.06 1018.78 1019.18 1019.79 1020.18 1020.34
1008.79 1009.57 1010.51 1011.28 1011.88 1012.49 1013.05 1013.22 1013.75 1014.12 1014.83 1015.28 1015.86 1016.22 1016.14 1014.53 1015.08 1014.68 1014.97 1015.32 1015.89 1016.03 1016.48 1016.73 1016.77 1016.98 1017.07 1017.36 1017.38 1017.68 1018.07 1017.80 1017.36 1017.15 1017.16 1017.20 1017.80 1017.63 1017.80 1018.44 1018.99 1019.40 1019.80 1020.09 1020.07
1007.92 1008.73 1009.70 1010.61 1011.39 1012.10 1012.65 1012.95 1013.40 1013.84 1014.67 1015.14 1015.88 1016.60 1015.53 1014.74 1014.76 1014.91 1015.27 1015.56 1015.87 1016.26 1016.48 1016.66 1016.62 1016.89 1016.81 1017.13 1017.63 1018.13 1018.30 1018.08 1017.45 1017.51 1017.57 1017.87 1017.76 1017.55 1017.90 1018.51 1019.22 1019.40 1019.64 1019.92 1019.85
1006.89 1008.02 1008.89 1010.02 1010.84 1011.63 1012.24 1012.72 1013.18 1013.95 1014.67 1015.31 1016.41 1016.51 1015.37 1014.55 1015.03 1015.32 1015.72 1015.23 1015.93 1016.37 1016.49 1016.57 1016.99 1017.04 1017.02 1017.37 1018.04 1018.19 1018.05 1018.04 1017.86 1017.70 1018.01 1018.21 1017.96 1017.39 1017.63 1018.36 1019.02 1019.08 1019.20 1019.25 1019.27
1005.84 1007.18 1008.15 1009.32 1010.24 1011.27 1012.22 1012.88 1013.60 1014.39 1015.01 1015.55 1016.07 1016.92 1014.97 1013.71 1013.99 1015.07 1015.40 1015.08 1015.55 1016.17 1016.86 1017.26 1017.05 1016.66 1016.82 1016.88 1015.99 1017.56 1018.09 1017.97 1017.87 1017.78 1018.14 1018.39 1018.06 1017.43 1017.39 1017.89 1018.12 1018.38 1018.48 1018.71 1018.68
1004.75 1006.13 1007.52 1008.56 1009.77 1010.77 1012.11 1013.21 1014.51 1015.28 1014.95 1014.02 1014.26 1013.87 1013.61 1013.68 1013.59 1014.61 1014.86 1015.07 1015.23 1016.04 1016.62 1016.65 1016.45 1014.98 1014.00 1015.29 1016.17 1017.28 1017.51 1017.78 1017.46 1017.34 1017.99 1018.19 1018.08 1017.48 1017.17 1017.80 1018.02 1017.81 1017.77 1017.86 1017.79
1003.82 1005.32 1006.70 1008.04 1009.24 1010.28 1011.52 1011.95 1012.11 1012.60 1014.14 1014.29 1014.36 1014.09 1014.11 1014.03 1014.21 1014.27 1015.06 1014.49 1014.66 1014.98 1015.86 1016.25 1014.92 1014.44 1015.36 1015.98 1016.27 1016.60 1017.51 1017.53 1017.59 1017.43 1018.11 1018.36 1018.09 1017.59 1017.51 1017.16 1017.28 1017.19 1016.88 1016.81 1016.86
1003.05 1004.60 1005.99 1007.59 1008.87 1010.26 1010.78 1011.53 1011.57 1012.30 1013.69 1013.92 1013.87 1013.93 1014.14 1014.60 1014.03 1014.32 1014.63 1013.35 1013.51 1014.26 1014.33 1014.25 1012.89 1014.81 1015.35 1015.73 1016.09 1016.15 1016.49 1017.28 1017.50 1017.92 1018.35 1018.59 1018.49 1018.03 1017.27 1017.01 1016.59 1016.04 1016.13 1016.06 1016.08
1002.10 1003.92 1005.35 1007.12 1009.29 1009.87 1010.86 1011.47 1011.52 1012.30 1013.99 1013.65 1013.29 1012.74 1013.43 1013.83 1013.51 1013.75 1014.26 1013.25 1013.37 1013.45 1014.38 1013.94 1013.83 1014.30 1014.95 1015.07 1015.33 1015.80 1016.25 1017.08 1017.79 1018.14 1018.72 1018.88 1018.39 1017.46 1016.77 1016.47 1016.21 1015.40 1015.54 1015.45 1015.43
1001.27 1003.11 1004.58 1005.90 1007.59 1009.03 1010.01 1010.96 1011.83 1013.07 1014.33 1012.14 1012.01 1011.12 1011.65 1012.86 1012.40 1012.75 1013.26 1013.94 1012.66 1011.58 1013.10 1012.54 1012.45 1013.00 1013.65 1012.87 1014.64 1015.56 1016.16 1017.16 1018.22 1018.59 1019.02 1019.37 1019.56 1016.72 1016.62 1016.21 1015.18 1014.64 1014.43 1014.47 1014.56
1000.50 1002.37 1004.02 1006.18 1007.64 1008.73 1009.66 1010.89 1012.39 1014.47 1012.92 1011.20 1011.09 1011.13 1012.04 1012.22 1011.67 1011.92 1012.75 1013.75 1012.42 1012.10 1012.68 1012.34 1012.29 1013.26 1012.92 1014.62 1015.14 1015.76 1016.73 1017.75 1019.09 1019.51 1019.59 1018.73 1019.08 1016.96 1016.06 1014.88 1014.23 1013.72 1013.71 1013.62 1013.77
1000.02 1001.76 1003.37 1005.24 1006.75 1008.02 1009.25 1011.07 1012.78 1012.62 1011.23 1011.14 1010.59 1010.75 1010.62 1010.90 1011.77 1011.87 1011.75 1011.80 1010.08 1010.56 1011.04 1012.30 1012.24 1012.26 1012.84 1014.44 1015.59 1015.55 1016.32 1018.85 1020.34 1020.34 1019.00 1018.40 1019.09 1015.40 1014.77 1013.97 1013.53 1013.01 1012.76 1012.71 1013.02
999.77 1001.50 1003.40 1005.13 1006.55 1007.34 1008.79 1010.65 1011.54 1010.27 1010.21 1009.54 1009.50 1010.00 1009.86 1010.01 1010.53 1010.56 1010.97 1010.61 1009.99 1009.61 1010.11 1010.17 1011.24 1010.38 1011.18 1011.73 1012.36 1013.36 1014.08 1015.50 1017.34 1019.40 1019.33 1019.06 1017.36 1014.46 1013.34 1012.65 1012.65 1012.37 1012.16 1012.24 1012.59
999.54 1002.00 1004.08 1005.57 1006.09 1007.13 1008.85 1009.86 1008.23 1008.43 1008.58 1008.95 1009.06 1009.30 1009.51 1009.42 1009.17 1009.97 1009.32 1009.80 1009.90 1008.24 1008.45 1008.94 1009.99 1010.61 1010.49 1011.26 1011.94 1013.56 1013.76 1014.46 1017.44 1019.70 1019.36 1018.00 1016.05 1014.15 1013.03 1012.80 1012.64 1012.50 1012.77 1012.67 1012.61
999.49 1002.46 1004.25 1005.50 1006.15 1007.27 1008.50 1007.64 1007.83 1007.56 1007.70 1008.11 1008.27 1007.99 1008.14 1008.18 1008.89 1008.48 1009.10 1008.29 1009.03 1008.20 1008.05 1007.71 1009.53 1009.99 1010.22 1011.11 1012.07 1011.82 1013.27 1014.66 1015.26 1017.63 1018.30 1016.96 1015.76 1013.29 1012.34 1012.56 1012.18 1012.39 1012.65 1012.92 1013.02
1000.45 1003.17 1004.76 1005.50 1006.15 1007.53 1007.02 1007.49 1007.31 1006.97 1007.05 1007.61 1007.76 1007.77 1007.27 1007.54 1007.54 1007.83 1007.16 1006.59 1007.04 1007.09 1007.20 1007.90 1007.27 1010.03 1010.29 1009.36 1009.61 1011.46 1012.14 1013.14 1014.28 1014.95 1015.32 1015.63 1013.45 1011.49 1011.20 1010.70 1011.20 1011.58 1012.04 1012.43 1012.81
1001.31 1003.55 1004.98 1005.39 1006.41 1007.17 1007.37 1006.97 1006.62 1006.49 1006.76 1007.21 1007.36 1007.33 1007.38 1007.42 1007.00 1006.68 1005.91 1005.15 1004.87 1006.13 1006.10 1007.47 1006.58 1008.49 1008.46 1010.19 1009.09 1009.47 1010.01 1010.79 1011.75 1013.52 1013.75 1013.23 1011.27 1009.38 1009.60 1009.46 1010.26 1011.07 1011.58 1011.83 1012.25
1001.97 1003.78 1005.18 1005.36 1006.15 1007.01 1006.76 1006.45 1006.34 1006.25 1006.27 1006.68 1006.31 1006.27 1006.36 1006.41 1006.69 1005.02 1004.82 1004.61 1004.73 1004.46 1004.72 1006.71 1005.10 1007.85 1009.53 1010.43 1009.85 1009.22 1009.50 1009.78 1010.17 1011.37 1012.17 1012.36 1010.11 1009.22 1008.94 1009.53 1009.93 1010.70 1011.32 1011.62 1012.14
1001.23 1003.57 1005.00 1005.67 1005.93 1005.85 1006.41 1006.44 1006.28 1005.71 1005.76 1005.64 1004.75 1005.41 1006.15 1005.97 1005.07 1004.32 1003.18 1003.64 1003.52 1003.41 1003.80 1005.15 1005.15 1004.14 1004.47 1005.43 1006.31 1008.01 1007.93 1008.14 1008.84 1010.07 1009.68 1009.71 1009.18 1008.98 1009.03 1009.10 1009.69 1010.13 1010.54 1011.30 1011.88
1000.35 1002.37 1002.93 1004.43 1005.18 1005.61 1006.15 1005.92 1005.55 1005.36 1004.69 1004.61 1004.71 1004.24 1004.33 1004.78 1003.41 1004.32 1003.05 1002.84 1003.04 1002.19 1003.10 1003.58 1004.47 1004.98 1005.24 1006.46 1007.45 1007.32 1007.22 1007.77 1008.17 1007.49 1008.66 1007.84 1008.90 1008.64 1008.50 1008.72 1009.02 1009.61 1010.63 1011.24 1011.69
1000.02 1001.57 1002.89 1003.51 1004.80 1005.75 1005.95 1005.05 1004.61 1004.15 1003.92 1003.21 1003.17 1002.39 1002.98 1002.23 1001.36 1001.95 1000.74 1000.73 1000.46 1001.16 1002.08 1003.51 1004.62 1005.63 1006.60 1006.22 1006.67 1007.25 1007.46 1007.73 1007.34 1007.97 1007.79 1007.72 1007.90 1007.85 1007.84 1008.41 1008.95 1009.46 1010.29 1010.69 1010.92
1000.12 1001.12 1001.91 1003.25 1004.05 1004.92 1004.14 1003.20 1002.95 1003.79 1002.98 1002.20 1001.14 1001.91 1001.27 999.68 1000.09 999.72 999.27 999.61 998.44 998.92 1000.91 1002.23 1002.96 1004.75 1006.59 1006.39 1007.08 1007.36 1006.46 1006.75 1006.37 1006.00 1005.48 1005.96 1005.29 1007.00 1007.40 1007.91 1008.21 1008.96 1009.36 1009.58 1010.12
Wind_Speed
21 19 18 17 15 15 14 13 11 10 9 10 10 11 10 10 7 6 9 8 7 1 12 5 4 5 5 4 3 1 3 3 5 6 4 5 5 1 2 7 3 2 6 6 13
23 21 19 19 16 16 15 13 12 10 10 12 10 12 11 9 7 12 6 13 14 10 7 10 4 4 4 3 3 2 4 7 5 4 6 7 6 7 5 3 3 2 4 11 13
23 22 20 19 17 16 15 14 13 11 10 6 6 12 9 7 3 7 14 12 11 10 5 8 10 9 2 4 4 4 5 4 1 3 8 8 5 3 10 3 7 9 9 11 8
24 23 20 20 18 17 15 14 13 12 12 10 3 11 14 5 12 6 25 20 15 9 9 8 8 9 8 4 4 3 6 4 1 2 3 9 7 5 5 7 8 12 16 14 13
24 24 22 20 18 16 15 14 16 13 13 11 7 9 6 6 8 2 19 24 11 10 11 13 8 5 7 7 2 2 2 4 1 1 3 7 4 5 6 2 9 13 10 13 15
25 24 23 21 19 17 15 13 14 13 14 12 8 9 4 15 2 1 8 10 14 13 10 10 10 9 6 4 6 4 4 3 3 4 2 5 2 2 6 6 9 15 14 11 14
26 25 23 21 19 16 14 13 13 14 15 14 12 3 7 17 7 2 10 11 11 15 14 10 7 10 6 6 4 3 3 2 3 4 3 4 1 6 3 7 11 11 12 11 12
27 26 24 22 19 17 14 9 12 12 15 15 13 4 10 2 8 11 5 5 10 6 4 8 6 6 5 4 4 5 4 6 4 6 3 4 7 9 7 10 10 10 10 12 15
28 27 26 23 21 18 14 10 9 10 14 14 7 5 8 6 3 7 7 13 12 6 2 3 6 7 4 8 3 5 4 7 3 9 4 6 6 10 8 9 9 10 11 13 13
30 29 28 25 22 19 14 13 9 8 5 7 3 4 4 13 9 8 8 11 12 11 4 5 5 9 7 12 21 7 5 7 8 9 6 5 7 4 4 10 14 11 10 11 13
32 32 29 26 24 22 18 10 7 2 6 7 7 3 4 1 7 9 9 13 16 9 11 8 10 24 30 21 7 9 8 12 8 5 5 11 8 11 8 4 7 9 10 12 13
33 33 30 27 26 25 14 7 8 6 4 12 6 14 1 2 5 7 14 16 14 16 12 7 21 22 16 11 16 14 12 12 3 3 7 6 13 10 7 7 8 11 10 10 8
34 33 31 28 26 18 16 9 7 6 5 5 12 8 5 5 5 7 15 9 21 20 25 16 21 16 15 17 18 8 19 11 7 4 1 3 8 7 9 6 9 13 10 9 13
36 34 32 29 17 16 16 10 8 7 4 6 8 8 11 7 8 11 8 5 9 25 20 19 12 19 22 22 19 19 7 8 6 11 6 6 7 6 9 14 9 19 10 13 12
38 36 34 28 11 17 14 11 8 7 3 10 9 7 14 17 8 13 11 12 15 19 13 16 27 26 27 34 22 6 11 8 5 6 4 4 2 7 3 7 11 15 17 17 15
38 37 36 12 9 12 18 15 7 6 13 5 8 16 16 17 11 4 15 21 7 14 19 6 14 19 18 11 12 10 10 9 5 1 10 9 9 6 7 9 6 7 11 13 11
38 37 25 12 13 17 18 12 8 8 5 6 8 16 22 21 19 17 15 27 16 16 21 17 18 8 16 17 7 9 18 4 5 5 6 7 7 12 8 9 10 11 10 11 10
38 34 22 7 15 19 14 11 6 8 11 3 8 17 20 14 16 21 19 11 25 20 15 25 16 24 21 24 16 26 19 8 9 6 4 4 11 10 14 10 9 7 6 6 8
34 9 11 14 16 15 14 14 13 8 12 8 4 7 13 18 8 18 19 30 13 17 18 22 18 16 25 14 20 12 17 11 9 3 4 6 7 10 7 9 9 10 5 7 7
11 11 10 15 13 12 10 16 7 7 7 5 10 7 9 15 18 18 21 18 27 27 19 7 14 21 20 13 14 15 10 8 1 9 6 4 6 8 7 12 13 9 11 9 7
11 7 8 10 11 6 10 9 6 5 7 7 7 2 7 9 16 16 14 21 32 25 20 8 18 11 14 15 21 9 14 7 6 5 10 5 9 10 17 17 16 12 11 10 10
5 5 10 12 6 3 8 10 7 7 8 5 2 8 8 1 19 22 17 17 36 29 18 15 15 12 26 1 8 20 20 6 13 9 4 4 8 7 16 15 10 11 11 8 9
5 5 6 3 9 5 3 6 3 8 13 11 14 14 10 15 13 19 23 23 26 34 28 11 10 17 7 4 3 18 11 19 5 4 7 7 8 4 6 8 9 11 9 8 9
6 6 4 2 2 6 5 5 10 11 11 14 10 13 10 16 18 13 20 13 29 31 18 10 6 21 24 26 27 31 22 29 12 6 9 17 5 5 5 11 9 8 11 11 9
2 4 6 10 12 8 8 5 17 9 14 15 10 21 18 16 21 26 24 26 27 33 18 14 4 5 2 14 13 22 24 20 20 17 12 13 8 8 10 9 13 15 9 8 9
5 5 2 2 8 17 13 11 12 14 10 16 21 21 26 28 22 25 18 21 26 32 21 3 8 10 3 17 20 13 25 16 23 17 9 5 9 9 8 2 7 11 13 12 12
2 2 6 8 10 12 17 20 16 10 16 25 25 21 26 37 26 30 24 20 26 32 29 23 11 12 8 13 12 7 25 27 24 26 29 25 23 10 8 10 14 15 14 16 12
Wind_Direction
226 221 223 226 221 227 222 226 226 225 237 239 238 220 221 215 203 162 202 204 214 355 131 85 38 1 342 304 289 112 72 205 223 164 215 177 126 125 68 108 72 14 153 179 139
224 219 220 224 219 220 219 222 224 226 228 238 235 219 220 168 215 225 174 208 206 169 143 152 154 58 294 262 280 173 151 217 217 187 184 167 140 148 103 116 45 32 1 129 138
217 217 217 222 216 212 213 222 221 217 215 183 230 211 184 136 243 231 193 205 196 195 184 148 126 128 314 207 231 187 206 228 237 232 172 162 135 159 131 209 196 184 165 149 148
216 212 211 213 210 207 215 221 222 208 201 184 197 203 162 133 219 192 180 201 200 186 194 161 150 162 167 235 231 218 225 257 223 13 173 160 131 123 183 211 183 169 166 158 171
213 208 206 209 204 204 212 221 223 204 194 190 194 192 158 202 224 181 197 186 186 183 199 183 158 195 167 189 164 250 300 234 232 139 79 112 143 172 202 157 114 132 161 179 182
204 204 201 202 198 204 202 209 220 205 192 183 178 182 207 240 173 296 146 173 181 183 200 194 186 194 165 163 165 221 231 277 240 175 67 127 131 132 227 121 135 153 176 185 191
202 197 195 195 192 196 203 209 216 208 186 178 182 106 275 218 346 214 152 174 196 187 192 202 213 187 148 139 199 153 202 298 226 200 177 128 254 218 171 152 161 177 179 191 207
200 193 189 189 186 188 185 194 203 196 186 175 159 92 235 138 38 345 184 155 180 203 231 200 217 207 155 114 86 147 176 201 227 151 221 148 242 239 182 151 193 192 189 196 209
195 189 180 181 179 177 179 151 151 187 192 177 146 180 238 132 190 271 236 177 170 173 112 109 162 198 132 140 130 197 190 202 194 199 133 178 239 240 182 186 203 210 205 206 214
190 185 178 175 169 165 160 131 121 90 162 166 123 177 224 213 160 228 252 177 171 151 139 170 202 181 177 183 206 159 199 190 205 207 183 188 246 263 184 190 217 212 216 211 215
184 180 177 169 165 159 140 110 112 96 211 215 179 199 116 108 141 208 232 171 168 174 179 197 193 199 195 198 176 166 161 195 212 197 134 202 215 236 222 221 228 231 223 218 214
180 176 171 165 161 157 149 170 155 153 166 247 279 219 108 64 176 239 218 181 182 181 157 176 211 202 185 177 197 165 193 197 226 182 168 204 239 242 245 236 207 227 231 219 217
177 173 165 162 157 155 171 145 124 123 118 242 214 195 205 163 200 220 198 189 183 183 184 193 207 189 178 182 192 184 199 197 199 105 8 106 273 221 249 236 246 247 228 232 215
173 169 159 153 152 170 175 144 104 88 48 255 201 222 191 149 248 174 239 167 188 191 190 210 198 177 188 195 186 204 157 187 151 150 201 160 270 250 216 236 220 243 229 227 227
169 163 155 153 138 178 154 130 93 59 122 231 176 183 172 186 129 209 195 246 198 170 163 198 177 178 190 196 190 187 127 146 181 173 125 199 214 265 187 236 231 230 235 227 225
163 158 151 130 137 161 139 121 92 92 226 214 134 169 157 198 222 86 182 214 216 189 200 189 189 177 194 172 174 123 93 46 39 56 223 194 185 249 198 205 247 225 227 221 210
157 154 147 149 155 147 136 136 155 195 250 214 167 174 182 193 206 192 185 199 189 185 184 194 182 166 158 146 163 146 155 132 190 206 231 159 182 239 230 240 224 232 231 218 205
153 147 145 132 141 146 145 156 160 198 205 206 163 171 193 173 206 198 192 213 223 194 180 184 189 171 175 187 179 176 174 159 167 183 195 118 223 239 219 218 214 226 243 191 185
138 119 134 153 150 146 148 183 198 176 189 145 100 175 204 213 175 190 206 220 248 193 196 183 207 183 179 175 155 179 196 165 97 349 96 205 280 298 207 229 241 242 200 192 173
124 130 146 151 152 145 180 203 192 169 112 124 206 187 172 208 192 188 191 211 220 211 192 217 177 185 183 139 195 183 155 161 216 144 218 251 274 224 221 216 232 203 203 206 200
105 115 141 133 129 160 205 213 176 173 158 153 190 267 239 205 208 203 190 225 204 197 184 220 173 167 162 203 171 157 187 180 131 172 183 159 245 202 202 216 201 201 199 187 189
94 118 163 154 126 162 203 179 171 177 185 222 227 227 227 283 222 209 222 216 195 190 184 203 191 164 194 22 205 178 188 175 185 206 233 160 259 189 207 207 174 190 199 204 186
97 103 179 128 181 180 274 203 156 170 181 185 213 209 217 248 253 207 214 207 191 190 169 190 163 154 165 346 306 199 179 202 112 90 201 152 253 191 182 171 188 179 185 185 179
114 126 121 180 168 134 123 225 209 212 238 214 228 219 215 238 217 273 212 230 195 199 175 162 177 187 186 184 180 189 200 197 184 165 184 212 201 276 183 179 184 184 171 181 187
96 181 168 172 209 195 155 208 209 219 210 202 244 236 219 236 232 251 216 202 213 197 173 175 153 143 180 169 180 202 195 189 200 202 188 223 206 227 205 188 179 175 176 166 193
119 135 104 164 177 189 195 212 220 222 229 217 228 225 222 230 225 228 206 201 201 182 177 222 151 152 355 169 182 194 202 199 210 212 258 175 218 192 207 145 141 172 181 189 201
105 71 113 173 169 178 211 223 233 227 237 234 233 226 231 225 224 229 202 205 182 177 186 180 151 158 195 165 131 205 195 200 210 208 210 214 219 156 183 185 189 191 190 196 195